Weather History for Kansas City International, MO

Change the Weather History Date:

Friday, March 8, 2013

  Actual Average Record
Temperature  
Mean Temperature 44 °F 40 °F  
Max Temperature 54 °F 51 °F 79 °F (2006)
Min Temperature 34 °F 30 °F 0 °F (1996)
Degree Days  
Heating Degree Days 21 25  
Month to date heating degree days 256 128  
Since 1 July heating degree days 3988 4173  
Cooling Degree Days 0 0  
Month to date cooling degree days 0 0  
Year to date cooling degree days 0 0  
Moisture  
Dew Point 32 °F    
Average Humidity 61    
Maximum Humidity 75    
Minimum Humidity 46    
Precipitation  
Precipitation 0.02 in 0.06 in 1.58 in (2009)
Month to date precipitation 0.04 0.32  
Year to date precipitation 2.93 2.85  
Snow  
Snow 0.00 in 0.00 in 4.50 in (1947)
Month to date snowfall T 0.4  
Since 1 July snowfall 25.2 16.6  
Snow Depth 0.00 in    
Sea Level Pressure  
Sea Level Pressure 30.13 in    
Wind  
Wind Speed 14 mph (SE)    
Max Wind Speed 22 mph    
Max Gust Speed 28 mph    
Visibility 10 miles    
Events Rain    
T = Trace of Precipitation, MM = Missing Value Source: NWS Daily Summary

Daily Weather History Graph

Daily Weather History Graph

Search for Another Location

Airport:

Trip Planner

Search our weather history database for the weather conditions in past years. The results will help you decide how hot, cold, wet, or windy it might be!

Date:

Astronomy

Mar. 08, 2013 Rise Set
Actual Time 6:40 AM CST 6:19 PM CST
Civil Twilight 6:14 AM CST 6:45 PM CST
Nautical Twilight 5:43 AM CST 7:16 PM CST
Astronomical Twilight 5:11 AM CST 7:48 PM CST
Moon 4:24 AM CST (3/8) 3:15 PM CST (3/8)
Length of Visible Light 12h 31m
Length of Day
11h 38m
Waning Crescent, 11% of the Moon is Illuminated
Mar 8
Waning Crescent
Mar 11
New
Mar 19
First Quarter
Mar 27
Full
Apr 2
Last Quarter

Hourly Weather History & Observations

Time (CST) Temp. Windchill Dew Point Humidity Pressure Visibility Wind Dir Wind Speed Gust Speed Precip Events Conditions
12:53 AM 35.1 °F 26.9 °F 26.1 °F 70% 30.22 in 10.0 mi ESE 11.5 mph - N/A   Clear
1:53 AM 34.0 °F 25.0 °F 26.1 °F 73% 30.22 in 10.0 mi ESE 12.7 mph - N/A   Clear
2:53 AM 34.0 °F 24.6 °F 26.1 °F 73% 30.21 in 10.0 mi ESE 13.8 mph - N/A   Clear
3:53 AM 34.0 °F 25.0 °F 26.1 °F 73% 30.20 in 10.0 mi SE 12.7 mph - N/A   Clear
4:53 AM 34.0 °F 24.6 °F 26.1 °F 73% 30.19 in 10.0 mi SE 13.8 mph - N/A   Partly Cloudy
5:53 AM 35.1 °F 26.4 °F 27.0 °F 72% 30.20 in 10.0 mi SE 12.7 mph - N/A   Mostly Cloudy
6:53 AM 35.1 °F 26.4 °F 27.0 °F 72% 30.21 in 9.0 mi SE 12.7 mph - N/A   Mostly Cloudy
7:53 AM 37.9 °F 30.0 °F 28.9 °F 70% 30.19 in 9.0 mi SE 12.7 mph - N/A   Overcast
8:53 AM 41.0 °F 33.5 °F 30.0 °F 65% 30.21 in 9.0 mi SE 13.8 mph - N/A   Mostly Cloudy
9:53 AM 44.1 °F 37.1 °F 30.9 °F 60% 30.19 in 9.0 mi SE 15.0 mph - N/A   Mostly Cloudy
10:53 AM 50.0 °F - 33.1 °F 52% 30.18 in 9.0 mi SSE 16.1 mph - N/A   Overcast
11:53 AM 53.1 °F - 33.1 °F 47% 30.17 in 10.0 mi SSE 16.1 mph - N/A   Overcast
12:53 PM 52.0 °F - 35.1 °F 53% 30.16 in 10.0 mi East 10.4 mph - N/A   Overcast
1:53 PM 51.1 °F - 35.1 °F 54% 30.12 in 10.0 mi East 17.3 mph - N/A   Overcast
2:53 PM 48.0 °F - 34.0 °F 58% 30.11 in 10.0 mi East 18.4 mph - N/A   Overcast
3:53 PM 46.9 °F - 34.0 °F 61% 30.08 in 10.0 mi ESE 15.0 mph - N/A   Overcast
4:53 PM 46.0 °F 39.3 °F 33.1 °F 61% 30.06 in 10.0 mi ESE 16.1 mph 27.6 mph N/A   Mostly Cloudy
5:53 PM 45.0 °F 38.9 °F 33.1 °F 63% 30.06 in 10.0 mi ESE 12.7 mph - N/A   Overcast
6:53 PM 46.9 °F - 33.1 °F 59% 30.06 in 10.0 mi ESE 12.7 mph - 0.00 in Rain Light Rain
7:53 PM 46.9 °F - 33.1 °F 59% 30.05 in 10.0 mi ESE 13.8 mph - 0.00 in   Overcast
8:53 PM 46.0 °F 40.2 °F 35.1 °F 66% 30.05 in 9.0 mi SE 12.7 mph - 0.00 in Rain Light Rain
9:53 PM 46.9 °F - 37.0 °F 68% 30.04 in 10.0 mi SE 15.0 mph - 0.01 in Rain Light Rain
10:53 PM 46.9 °F - 37.0 °F 68% 30.01 in 10.0 mi SE 11.5 mph - 0.00 in   Overcast
11:53 PM 46.9 °F - 37.0 °F 68% 29.98 in 10.0 mi SE 12.7 mph - 0.01 in   Overcast